WILDFIRE 3

导读

WILDFIRE 3是美国于2023年9月2日发射的野火监测卫星,隶属于野火卫星监测预警系统,通过多星组网实现24小时全天候全球野火监测,最快监测频次可达10分钟/次。它可精准识别森林火、草原火等各类火点,结合多源数据开展火灾风险预警、过火面积评估和污染物排放核算,为林业防火、应急管理等领域提供近实时精准的数据支撑,助力野火早发现早处置,降低灾害损失。

Basic Information
目录编号:
57758
目录名称:
WILDFIRE 3
国际标识:
2023-133C
轨道中心:
EARTH
卫星名称:
WILDFIRE 3
卫星全名:
--
卫星状态:
在轨 (已飞行1017 天)
发射日期:
2023-09-02 UTC
国别 :
美国 (US)
星等 :
--
Orbit Information
数据来源 国际轨道数据 AOE轨道数据
星历时间 2026-06-14T23:26:41+0800
12小时前
查看轨道信息
2026-06-15T07:00:00+0800
5小时前
查看轨道信息
半长轴 7319.838km 7319.839km
偏心率 0.0008748 0.0008688
轨道倾角 80.997° 81.000°
近地点辐角 7.662° 9.779°
升交点赤经 8.426° 8.124°
平近点角 352.466° 120.568°
近地点 935.297km 935.342km
远地点 948.105km 948.062km
周期 103.875分钟 103.875分钟
每日圈数 13.862789 13.862786
Detailed Information
使用方式:
暂无
2D Orbit Map
3D Orbit Map
Orbit Altitude Analysis Chart
Orbit Inclination Analysis Chart
Orbit Comprehensive Analysis Chart
View Comprehensive Chart